Regional Weather Roundup
Issued by NWS

Home | Current Version | Previous Version | Text Only | Print | Product List | Glossary Off
Versions: 1 2 3 4 5 6 7 8 9 10 11 12 13 14 15 16 17 18 19 20 21 22 23 24 25 26 27 28 29 30 31 32 33 34 35 36 37 38 39 40 41 42 43 44 45 46 47 48 49 50

000
ASUS43 KBIS 010210
RWRND

NORTH DAKOTA REGIONAL WEATHER ROUNDUP
NATIONAL WEATHER SERVICE BISMARCK ND
900 PM CDT MON AUG 31 2015

NOTE: "FAIR" INDICATES FEW OR NO CLOUDS BELOW 12,000 FEET WITH NO
SIGNIFICANT WEATHER AND/OR OBSTRUCTIONS TO VISIBILITY.


NDZ001>003-009>011-017-010300-
NORTHWEST NORTH DAKOTA

CITY           SKY/WX    TMP DP  RH WIND       PRES   REMARKS
WILLISTON      CLEAR     64  41  42 W6        29.84S
MINOT          CLEAR     70  42  36 S5        29.84R
MINOT AFB      CLEAR     65  42  44 SW2       29.83R
$$

NDZ018>021-031>035-040>046-010300-
SOUTHWEST NORTH DAKOTA

CITY           SKY/WX    TMP DP  RH WIND       PRES   REMARKS
BISMARCK       PTCLDY    67  47  48 CALM      29.88R
DICKINSON      CLEAR     65  42  43 S5        29.89R
GARRISON         N/A     66  50  56 CALM      29.87R
HETTINGER ARPT CLEAR     66  44  45 CALM      29.93R
$$

NDZ004>008-012>016-024-026-027-054-010300-
NORTHEAST NORTH DAKOTA

CITY           SKY/WX    TMP DP  RH WIND       PRES   REMARKS
GRAND FORKS    CLOUDY    66  59  78 SW6       29.82R
GRND FRKS AFB  CLOUDY    65  59  81 W6        29.83R
DEVILS LAKE    PTCLDY    66  46  48 W9        29.84R
$$

NDZ022-023-025-028>030-036>039-047>053-010300-
SOUTHEAST NORTH DAKOTA

CITY           SKY/WX    TMP DP  RH WIND       PRES   REMARKS
FARGO          CLOUDY    73  65  75 S3        29.83R
JAMESTOWN      CLOUDY    64  55  72 CALM      29.87R
$$




USA.gov is the U.S. government's official web portal to all federal, state and local government web resources and services.